User: anonymous   Login
Location: Unspecified
(0.0000°N, 0.0000°E)
Time: 07:10:37
(UTC+00:00)
Language:

Kosmos-1339 - Orbit

View from above orbital plane
View from above orbital plane
View from above satellite
View from above satellite

Ground track
Ground track

The orbit data is extracted from the following two-line orbital elements,

1 13065U 82012A   18016.35205939  .00000033  00000-0  18378-4 0  9997
2 13065  82.9007  92.4195 0044818  95.0530 265.5744 13.75499138802238
Epoch (UTC): 16 January 2018 08:26:57
Eccentricity: 0.0044818
inclination: 82.9007°
perigee height: 947 km
apogee height: 1013 km
right ascension of ascending node: 92.4195°
argument of perigee: 95.0530°
revolutions per day: 13.75499138
mean anomaly at epoch: 265.5744°
orbit number at epoch: 80223

The dashed part of the orbit path shows where the satellite is in the earth's shadow,  

DLR